Regional Weather Roundup
Issued by NWS

Home | Current Version | Previous Version | Text Only | Print | Product List | Glossary On
Versions: 1 2 3 4 5 6 7 8 9 10 11 12 13 14 15 16 17 18 19 20 21 22 23 24 25 26 27 28 29 30 31 32 33 34 35 36 37 38 39 40 41 42 43 44 45 46 47 48 49 50
000
ASUS43 KFSD 220710
RWRSD

WEATHER ROUNDUP FOR SOUTH DAKOTA
NATIONAL WEATHER SERVICE SIOUX FALLS SD
200 AM CDT TUE MAY 22 2018

NOTE: "FAIR" INDICATES FEW OR NO CLOUDS BELOW 12,000 FEET WITH NO
SIGNIFICANT WEATHER AND/OR OBSTRUCTIONS TO VISIBILITY.


SDZ001>005-009-010-012>017-220800-
NORTHWEST AND NORTH CENTRAL SOUTH DAKOTA

CITY           SKY/WX    TMP DP  RH WIND       PRES   REMARKS
BUFFALO          N/A     58  48  69 SE7       29.87R
FAITH            N/A     59  48  67 SE15      29.91S
MOBRIDGE       CLEAR     51  47  86 CALM      29.91S
$$

SDZ012>016-024>037-041>051-057-063-072>074-220800-
SOUTHWEST AND SOUTH CENTRAL SOUTH DAKOTA

CITY           SKY/WX    TMP DP  RH WIND       PRES   REMARKS
RAPID CTY ARPT CLOUDY    53  50  89 CALM      29.93R
PIERRE         CLEAR     55  51  86 SE5       29.92R
CUSTER         LGT RAIN  57  41  55 S6        30.02F
ELLSWORTH AFB  CLOUDY    56  56  99 S3        29.92S
PHILIP         MOCLDY    55  53  93 NE5       29.91R
PINE RIDGE     MOCLDY    56  54  93 NW3       29.95S
SPEARFISH      FAIR      54  48  82 N7        29.96R
WINNER         FAIR      63  55  75 S10       29.93S
$$

SDZ004>011-016>023-039-040-220800-
NORTHEAST SOUTH DAKOTA

CITY           SKY/WX    TMP DP  RH WIND       PRES   REMARKS
ABERDEEN       CLEAR     53  52  96 SE6       29.97S
WATERTOWN      CLEAR     52  52 100 SE6       29.98S FOG
BROOKINGS      CLEAR     53  53 100 SE3       30.00S FOG
SISSETON         N/A     56  55  97 SE5       29.98R
$$

SDZ017-020-022-023-036>040-048>070-220800-
SOUTHEAST SOUTH DAKOTA

CITY           SKY/WX    TMP DP  RH WIND       PRES   REMARKS
SIOUX FALLS    CLEAR     52  52 100 SE3       29.99S FOG
HURON          CLEAR     55  53  93 SE8       29.96F
CHAMBERLAIN    CLEAR     57  55  95 SE6       29.94S
MITCHELL       CLEAR     56  54  93 SE6       29.97S
YANKTON        PTCLDY    57  56  96 E5        29.98S FOG
$$

ABBREVIATIONS USED IN REMARKS
   TC - TEMPERATURE IN CELSIUS
  WCI - WIND CHILL INDEX
   HX - HEAT INDEX
  VSB - VISIBILITY




USA.gov is the U.S. government's official web portal to all federal, state and local government web resources and services.